User: anonymous   Login
Location: Unspecified
(0.0000°N, 0.0000°E)
Time: 21:16:36
(UTC+00:00)
Language:

ZACube-1 - Orbit

View from above orbital plane
View from above orbital plane
View from above satellite
View from above satellite

Ground track
Ground track

The orbit data is extracted from the following two-line orbital elements,

1 39417U 13066B   17141.73762395 +.00000290 +00000-0 +43287-4 0  9995
2 39417 097.6318 185.2589 0059201 358.0985 001.9994 14.80692462188868
Epoch (UTC): 21 May 2017 17:42:10
Eccentricity: 0.0059201
inclination: 97.6318°
perigee height: 585 km
apogee height: 668 km
right ascension of ascending node: 185.2589°
argument of perigee: 358.0985°
revolutions per day: 14.80692462
mean anomaly at epoch: 1.9994°
orbit number at epoch: 18886

The dashed part of the orbit path shows where the satellite is in the earth's shadow,  

DLR